Location: Peterborough
(44.3091°N, 78.3197°W)
Time: 04:18:38
(UTC-04:00)

S-56A Canister/Altair - Pass Details

Date: 28 March 2023
Orbit: 639 x 2492 km, 38.9° (Epoch: 08 June)

Event Time Altitude Azimuth Distance (km) Brightness Sun altitude
Rises 16:12:46 0° 170° (S) 4,235 11.6 33.7°
Reaches altitude 10° 16:18:40 10° 137° (SE) 3,766 11.0 32.9°
Maximum altitude 16:21:01 11° 123° (ESE) 3,869 11.0 32.5°
Drops below altitude 10° 16:23:33 10° 109° (ESE) 4,144 11.0 32.1°
Sets 16:31:27 0° 81° (E) 5,654 11.5 30.9°
